Location: Waco, TX
(31.5480°N, 97.1670°W)
Time: 16:19:55
(UTC-06:00)

ISS - Pass Details

Date: 15 November 2018
Orbit: 402 x 409 km, 51.6° (Epoch: 14 November)

Event Time Altitude Azimuth Distance (km) Brightness Sun altitude
Rises 22:11:40 0° 249° (WSW) 2,301 - -59.7°
Reaches altitude 10° 22:13:58 10° 264° (W) 1,446 - -60.2°
Maximum altitude 22:16:42 25° 321° (NW) 857 - -60.8°
Drops below altitude 10° 22:19:27 10° 19° (NNE) 1,451 - -61.3°
Sets 22:21:46 0° 34° (NNE) 2,312 - -61.8°
